Location: Dammartin
(48.9032°N, 1.6195°E)
Time: 13:47:11
(UTC+00:00)

YUBILEINY - Pass Details

Date: 07 December 2023
Orbit: 1479 x 1508 km, 82.5° (Epoch: 02 March)

Event Time Altitude Azimuth Distance (km) Brightness Sun altitude
Rises 21:43:45 0° 344° (NNW) 4,629 ? -54.5°
Reaches altitude 10° 21:47:11 10° 333° (NNW) 3,640 ? -54.9°
Enters shadow 21:50:47 21° 312° (NW) 2,853 ? -55.4°
